Location: Domont
(49.0278°N, 2.3264°E)
Time: 04:09:15
(UTC+00:00)

Orbus 7S? - Pass Details

Date: 02 June 2022
Orbit: 340 x 6374 km, 56.9° (Epoch: 04 July)

Event Time Altitude Azimuth Distance (km) Brightness Sun altitude
Exits shadow 21:25:14 12° 163° (SSE) 3,831 7.0 -11.9°
Maximum altitude 21:34:40 37° 102° (ESE) 3,919 7.3 -12.7°
Drops below altitude 10° 21:56:56 10° 48° (NE) 8,651 9.5 -14.5°
Sets 22:06:06 0° 43° (NE) 10,427 10.1 -15.1°
